Regional Weather Roundup
Issued by NWS Glasgow, MT

Home | Current Version | Previous Version | Text Only | Print | Product List | Glossary On
Versions: 1 2 3 4 5 6 7 8 9 10 11 12 13 14 15 16 17 18 19 20 21 22 23 24 25 26 27 28 29 30 31 32 33 34 35 36 37 38 39 40 41 42 43 44 45 46 47 48 49 50
000
ASUS45 KGGW 252215
RWRGGW
HOURLY WEATHER ROUNDUP FOR NORTHEAST MONTANA
NATIONAL WEATHER SERVICE GLASGOW MONTANA
400 PM MDT SAT APR 25 2015

NOTE: "FAIR" INDICATES FEW OR NO CLOUDS BELOW 12,000 FEET WITH NO
SIGNIFICANT WEATHER AND/OR OBSTRUCTIONS TO VISISBILITY.

NORTHEAST MONTANA


CITY           SKY/WX    TMP DP  RH WIND       PRES   REMARKS
GLASGOW        LGT RAIN  44  41  89 W13       29.76R FOG
PLENTYWOOD       N/A     52  42  69 SE14G26     N/A
WOLF POINT     RAIN      47  43  86 W15       29.73R FOG
JORDAN           N/A     46  42  86 W14       29.78S
WINNETT          N/A     50  32  50 W10G20      N/A
SIDNEY         CLOUDY    55  43  62 E14       29.73R
GLENDIVE       CLOUDY    46  37  71 W24G31    29.73R
MALTA            N/A     46  43  89 W7          N/A
SCOBEY           N/A     47  38  71 NW9       29.70R
OPHEIM           N/A     37  37 100 W8        29.63S

FORT PECK REPORTS


CITY           SKY/WX    TMP DP  RH WIND       PRES   REMARKS
FORT PECK        N/A     43  42  97 W13         N/A
THE PINES        N/A     43  40  89 W3          N/A

SOUTHEAST MONTANA


CITY           SKY/WX    TMP DP  RH WIND       PRES   REMARKS
BILLINGS       PTSUNNY   47  37  68 E9        29.82S
MILES CITY     LGT RAIN  43  32  65 NW10      29.80R
BAKER          CLOUDY    51  40  65 W17G38    29.76R
LIVINGSTON     CLOUDY    48  33  56 VRB6      29.79S

CENTRAL MONTANA


CITY           SKY/WX    TMP DP  RH WIND       PRES   REMARKS
HAVRE          CLOUDY    52  33  48 NW18G29   29.81R
LEWISTOWN      CLOUDY    49  31  49 NW9       29.82R
GREAT FALLS    CLOUDY    54  24  31 N8        29.80S
CUT BANK       CLOUDY    48  24  39 N13       29.82S
HELENA         PTSUNNY   54  25  32 NE7       29.77S
BUTTE          CLOUDY    43  24  47 W9        29.80R
BOZEMAN        MOSUNNY   48  31  51 CALM      29.80F

WESTERN MONTANA


CITY           SKY/WX    TMP DP  RH WIND       PRES   REMARKS
MISSOULA       PTSUNNY   54  22  28 SW10      29.80S
KALISPELL      NOT AVBL

NORTH DAKOTA


CITY           SKY/WX    TMP DP  RH WIND       PRES   REMARKS
WILLISTON      CLOUDY    57  43  59 SE15G25   29.73F
DICKINSON      CLOUDY    49  43  80 SE18      29.74F
MINOT          CLOUDY    57  39  51 SE16      29.80S
BISMARCK       CLOUDY    50  42  74 SE12      29.83R

SOUTHERN SASKATCHEWAN


CITY           SKY/WX    TMP DP  RH WIND       PRES   REMARKS
REGINA         CLOUDY    46  43  87 SE20G30   29.78F
ESTEVAN        CLOUDY    54  39  58 SE20G25   29.78F
SWIFT CURRENT  LGT RAIN  34  34 100 N12       29.79S FOG



USA.gov is the U.S. government's official web portal to all federal, state and local government web resources and services.